TimeAKST,TemperatureF,Dew PointF,Humidity,Sea Level PressureIn,VisibilityMPH,Wind Direction,Wind SpeedMPH,Gust SpeedMPH,PrecipitationIn,Events,Conditions,WindDirDegrees,DateUTC
1:53 AM,37.4,35.6,93,29.38,10.0,ESE,10.4,-,N/A,Rain,Light Rain,110,2013-02-04 10:53:00
2:29 AM,37.4,35.6,93,29.38,10.0,ESE,11.5,-,0.00,Rain,Light Rain,110,2013-02-04 11:29:00
3:00 AM,37.4,33.8,87,29.38,10.0,ESE,10.4,-,N/A,,Overcast,120,2013-02-04 12:00:00
3:53 AM,37.0,34.0,89,29.39,10.0,ESE,13.8,-,0.00,,Overcast,120,2013-02-04 12:53:00
4:23 AM,37.4,33.8,87,29.39,10.0,SE,11.5,-,0.00,Rain,Light Rain,130,2013-02-04 13:23:00
4:53 AM,37.0,34.0,89,29.39,10.0,SE,10.4,-,0.00,Rain,Light Rain,130,2013-02-04 13:53:00
5:53 AM,37.0,34.0,89,29.40,10.0,SE,9.2,-,0.00,Rain,Light Rain,130,2013-02-04 14:53:00
6:53 AM,37.0,34.0,89,29.42,10.0,SSE,8.1,-,0.00,Rain,Light Rain,150,2013-02-04 15:53:00
7:53 AM,37.0,34.0,89,29.44,10.0,ESE,9.2,-,0.02,Rain,Light Rain,110,2013-02-04 16:53:00
8:53 AM,37.0,35.1,93,29.46,9.0,ESE,11.5,-,0.02,Rain,Light Rain,120,2013-02-04 17:53:00
9:53 AM,37.9,35.1,89,29.47,10.0,SE,9.2,-,0.02,Rain,Light Rain,140,2013-02-04 18:53:00
10:53 AM,37.9,36.0,93,29.49,10.0,SE,9.2,-,0.02,Rain,Light Rain,130,2013-02-04 19:53:00
11:53 AM,39.0,36.0,89,29.50,10.0,SE,9.2,-,0.01,Rain,Light Rain,130,2013-02-04 20:53:00
12:53 PM,39.0,37.0,93,29.51,6.0,SE,10.4,-,0.02,Rain,Light Rain,130,2013-02-04 21:53:00
1:53 PM,39.0,37.0,93,29.51,10.0,SE,9.2,-,0.00,,Overcast,130,2013-02-04 22:53:00
2:53 PM,39.9,35.1,83,29.52,10.0,SE,12.7,-,N/A,,Overcast,140,2013-02-04 23:53:00
3:53 PM,39.9,35.1,83,29.52,10.0,SE,13.8,-,N/A,,Overcast,140,2013-02-05 00:53:00
4:53 PM,39.0,35.1,86,29.54,10.0,SE,9.2,-,N/A,,Overcast,130,2013-02-05 01:53:00
5:53 PM,37.9,34.0,86,29.55,10.0,ESE,9.2,-,N/A,,Mostly Cloudy,120,2013-02-05 02:53:00
6:53 PM,37.9,35.1,89,29.56,10.0,East,12.7,-,N/A,,Mostly Cloudy,100,2013-02-05 03:53:00
7:53 PM,37.9,34.0,86,29.56,10.0,ESE,10.4,-,N/A,,Mostly Cloudy,120,2013-02-05 04:53:00
8:53 PM,37.9,35.1,89,29.56,10.0,East,8.1,-,N/A,,Mostly Cloudy,100,2013-02-05 05:53:00
9:53 PM,37.9,35.1,89,29.56,10.0,East,8.1,-,N/A,,Mostly Cloudy,100,2013-02-05 06:53:00
10:53 PM,37.9,36.0,93,29.57,10.0,ESE,9.2,-,N/A,,Mostly Cloudy,110,2013-02-05 07:53:00
11:53 PM,37.0,35.1,93,29.56,10.0,ESE,6.9,-,N/A,,Mostly Cloudy,120,2013-02-05 08:53:00